AQI (21)

Current Conditions for Foresthill, CA. Overcast, Dry   
Visibility: 10 miles
Cloud ht: 7,000 ft
Space WX Alerts: WARNING:  Geomagnetic K-index of 4 expected ( Latest Alert ) - Issue Time: 2018 May 23 0740 UTC

  Summary / Temperature 

Current Temperature
45.8°F
7.7°C
(24/hr Ago)
47.8°F
(Apparent temp)
44.5°F
Cool
Wind Chill Graphs
45.8°F 

45.8°F/ 7.7°C
 --- Virtual Temp: 47.9°F ---

 Temp Rate:

 24/hr Difference:

 Avg Running Temp:

 Todays High:

 Todays Low:

 Y-days High:

 Y-days Low:

 Todays WChill:

 Y-days WChill:

 Evapotranspiration:

-0.1°F/hr 

-2°F

45.8°F

46.0°F 12:00am

45.4°F 1:13am

50.5°F 12:00am

46.0°F 11:19pm

43.2°F 1:56am

40.8°F 7:10am

0.000 in

115' Above Ground

 Temperature:

 6'AGL VRS 115'AGL:

 Avg Running Temp:

 Humidity:

 Todays High:

 Todays Low:

 Y-days High:

 Y-days Low:

47.0°F 

+1.2°F

47.1°F

91% 

48.0°F 12:13am

47.0°F 12:00am

49.0°F 4:05pm

45.0°F 5:19am

Temp & Humidity Graphs

  Wind 

Wind Speed

 Calm

Gusting to

 4.0 mph

Wind from SE

139°  SE

Calm

 Avg speed:

 Wind Run:

 Peak Gust:

Calm 

0.0 miles

  5.0 mph 1:52am

  Almanac  

Moon age: 11 days,17 hours,5 minutes,90%

Waxing Gibbous
90%
Illuminated
11 days in cycle

 Moonrise:

 Moonset:

 Sunrise:

 Sunset:

 Solar Noon:

5:34pm

4:19am

5:41am

8:17pm

1:01pm

1min 25s more daylight tomorrow 

  Solar Radiation 

(Current Solar)
  No Sun Light
(Todays High)
 None@12:00am

Rain

 Rain Today:

 Rain Rate (/hr):

 Rain last hour:

 Rain Yesterday:

 This Month:

 Season Total:

1 Day Since Last Dry Day

0.00 in

0.000 in

0.00 in

0.29 in

0.47 in

42.45 in

Updated Time

Updated: 5/26/18  2:50am

(Updated  sec ago)

Humidity & Barometer

 Humidity:

 Wetbulb:

 Dew Point:

 Barometer:

95% 

45.1°F 

44.4°F 

30.092 inHg 

 Baro Trend:  Steady 
Northern Calif
Preparedness
Fire 
Level 

    UV Index  

(Current UV)
0.0  None
(Todays High) @ 12:00am
0.0   None

National Weather Service Forecast

Overnight

Chance rain
Chance rain
Saturday

Chance rain
Chance rain
Saturday
Night
Partly Cloudy
Partly Cloudy
Sunday

Sunny
Sunny
Sunday
Night
Mostly Clear
Mostly Clear
Memorial
Day
Sunny
Sunny
Lo ≈47°F Hi ≈65°F Lo ≈51°F Hi ≈78°F Lo ≈58°F Hi ≈86°F

Foresthill Probe 2 Stats  
Foresthill Probe 2: is located on Thomas Street
at 3000 feet. The main Foresthill Weather site
is located on Melody ln at the 2860 foot elevation

Calm
45.5°F
7.5°C
Temp Rate:
0°F
Calm
Gusting to
None
(Humidity)
96%
Calm
121°  
Updated: 26/05/18 - 02:46:24
 Todays High: 45.5°F 02:45
 Todays Low: 45.1°F 00:33
 Rain Today: 0.00 in
 Season Total: 44.79 in

Foresthill Wx: Monthly,Yearly, Highs and Lows 

Foresthill  
This Weather Data is coming from the main Foresthill
Weather site located on Melody ln at the 2860 foot
elevation
Not Foresthill Probe 2
Weather Data
Month
  High
Month
  Low
Year
High
Year
Low
Temp 78.4°F
5/8/18
42.8°F
5/1/18
78.7°F
4/24/18
21.9°F
2/23/18
Humidity 98%
5/25/18
18%
5/11/18
100%
1/8/18
15%
2/10/18
Heat Index 77.9°F
5/8/18
48.1°F
5/1/18
78.0°F
4/24/18
27.1°F
2/20/18
Wind Chill 78.4°F
5/8/18
39.8°F
5/1/18
78.7°F
4/24/18
9.2°F
2/23/18
Wind Gust 31 mph
5/11/18
0 mph
5/1/18
43 mph
3/1/18
0 mph
1/1/18
Barometer 30.26 in
5/4/18
29.73 in
5/11/18
30.55 in
1/27/18
29.63 in
1/9/18
ET 0.21 in
5/11/18
0.00 in
5/1/18
0.21 in
5/11/18
0.00 in
1/1/18
Dew Point 57.1°F
5/23/18
23.3°F
5/11/18
57.1°F
5/23/18
7.6°F
2/11/18
Pacific Satellite US Radar Satellite Imagery Sacramento,CA.  (click to enlarge)
NWS Weather Forecast - Summary
Updated: Friday, May 25, 2018 - 2:51pm PDT
Current Interstate Highway Conditions for I-80 & US-50

[I 80: IN THE SAN FRANCISCO BAY AREA - SOLANO CO]
no traffic restrictions are reported for this area.

[I 80: IN THE NORTHERN CALIFORNIA AREA & SIERRA NEVADA]
no traffic restrictions are reported for this area.

[US 50: IN THE SACRAMENTO VALLEY & THE LAKE TAHOE BASIN]
no traffic restrictions are reported for this area.
NWS Weather Forecast: Overnight and Saturday (Updated: Sat, 26-May-2018 2:04am PDT)
Overnight

Chance rain
Chance rain
Lo ≈47°F
NWS forecast: A chance of rain showers. Mostly cloudy, with a low around 47. East southeast wind around 3 mph. Chance of precipitation is 30%.
Saturday

Chance rain
Chance rain
Hi ≈65°F
NWS forecast: A chance of rain showers before 5pm. Partly sunny, with a high near 65. Southwest wind 2 to 7 mph. Chance of precipitation is 30%. New rainfall amounts less than a tenth of an inch possible.
YR.NO 10 Day Weather forecast
Last update: 05/25/2018 @ 12:34
Next update: 05/26/2018 @ 01:00
Provided by: 22
      Temperature Precipitation Pressure Wind  
Today
05/26/2018
01:00 06:00 46°F   30.06 inHg Light air from northeast 1 mph
  06:00 12:00 45°F   30.04 inHg Light air from east-northeast 1 mph
  12:00 18:00 55°F   30.04 inHg Light breeze from west 6 mph
  18:00 00:00 55°F   30.01 inHg Light breeze from west-southwest 5 mph
    (Click to enlarge)
meteogram

    Forecast for next 9 days

      Temperature Precip Pressure Wind  
Sunday
05/27/2018
00:00 06:00 46°F   29.99 inHg Light breeze from east-northeast 5 mph
  06:00 12:00 43°F   29.95 inHg Light breeze from east-northeast 7 mph
  12:00 18:00 72°F   29.91 inHg Gentle breeze from west 9 mph
  18:00 00:00 73°F   29.87 inHg Light breeze from west 6 mph
      Temperature Precip Pressure Wind  
Monday
05/28/2018
00:00 06:00 50°F   29.94 inHg Light breeze from east-northeast 5 mph
  05:00 11:00 50°F   29.91 inHg Gentle breeze from east-northeast 8 mph
  11:00 17:00 79°F   29.91 inHg Light breeze from west-southwest 6 mph
  17:00 23:00 81°F   29.85 inHg Light breeze from west 6 mph
  23:00 05:00 59°F   29.88 inHg Light breeze from east-northeast 6 mph
      Temperature Precip Pressure Wind  
Tuesday
05/29/2018
05:00 11:00 59°F   29.84 inHg Gentle breeze from east-northeast 8 mph
  11:00 17:00 84°F   29.82 inHg Light breeze from west-southwest 6 mph
  17:00 23:00 84°F   29.73 inHg Light breeze from west-southwest 7 mph
  23:00 05:00 64°F   29.74 inHg Light breeze from east-southeast 5 mph
      Temperature Precip Pressure Wind  
Wednesday
05/30/2018
05:00 11:00 57°F   29.68 inHg Light air from southeast 3 mph
  11:00 17:00 72°F   29.70 inHg Gentle breeze from south-southwest 8 mph
  17:00 23:00 72°F   29.64 inHg Gentle breeze from south-southwest 9 mph
  23:00 05:00 54°F   29.69 inHg Light air from southeast 3 mph
      Temperature Precip Pressure Wind  
Thursday
05/31/2018
05:00 11:00 45°F   29.75 inHg Light breeze from southeast 4 mph
  11:00 17:00 64°F   29.80 inHg Light breeze from west-southwest 5 mph
  17:00 23:00 68°F   29.79 inHg Light breeze from west-southwest 5 mph
  23:00 05:00 52°F   29.84 inHg Light air from east-northeast 3 mph
      Temperature Precip Pressure Wind  
Friday
06/01/2018
05:00 11:00 43°F   29.83 inHg Light breeze from east-northeast 5 mph
  11:00 17:00 73°F   29.87 inHg Light breeze from west-southwest 5 mph
  17:00 23:00 77°F   29.83 inHg Light breeze from west-southwest 5 mph
  23:00 05:00 55°F   29.88 inHg Light air from east 3 mph
      Temperature Precip Pressure Wind  
Saturday
06/02/2018
05:00 11:00 48°F   29.89 inHg Light breeze from east-northeast 6 mph
  11:00 17:00 77°F   29.94 inHg Light breeze from southwest 6 mph
  17:00 23:00 77°F   29.91 inHg Light breeze from southwest 7 mph
  23:00 05:00 57°F   29.98 inHg Light breeze from east 4 mph
      Temperature Precip Pressure Wind  
Sunday
06/03/2018
05:00 11:00 52°F   29.94 inHg Light breeze from east-northeast 6 mph
  11:00 17:00 75°F   29.96 inHg Light breeze from southwest 6 mph
  17:00 23:00 75°F   29.90 inHg Light breeze from southwest 6 mph
  23:00 05:00 55°F   29.90 inHg Light air from east 2 mph
How Close Are We To this Month's Temperature Record ?
Updated Saturday, May 26, 2018- 2:45:01 AM

Current Temperature: 45.8°F

May's High: Temperature Record 86.5°F - Set on Tue, May 23, 2017 - 1:25:00 PM
We are currently 40.7°F Less than this Month's record High

May's Low: Temperature Record 39.2°F - Set on Fri, May 25, 2012 - 6:42:00 AM
We are currently 6.6°F More than this Month's record Low

Weather History For Saturday, May 26, 2018


On this Day - In Weather History ...
Data courtesy of weatherforyou.com
powered by Cumulus v1.9.3 (1059)
Ambient Weather VWS v14.00
Top Contact Website Map Copyright © 2007 - 2018 Foresthillweather.com Never base important decisions on this or any weather information obtained from the Internet